Skip navigation

Daily Weather Reports

[Select Refresh to Update]


Yesterday's Data File


2/8/16
Time

Wind Dir
 

Wind Spd
mph

Wind Gust
mph

Hum In
%

Humidity
%

Temp In
 F

Temp
 F

Raw Barom
in

Tot Rain
in

DailyRain
in

HourRain
in

24HrRain
in

RainRate
in/hr
12:00am 20 37 39 16 18 77.0 69.8 30.19 8.80 0.00 0.00 0.00 0.000
12:01am 36 24 39 16 18 77.0 69.8 30.18 8.80 0.00 0.00 0.00 0.000
12:02am 35 22 39 16 18 77.0 69.8 30.19 8.80 0.00 0.00 0.00 0.000
12:03am 57 33 39 16 18 77.0 69.8 30.19 8.80 0.00 0.00 0.00 0.000
12:04am 7 20 39 16 18 77.0 69.8 30.18 8.80 0.00 0.00 0.00 0.000
12:05am 43 19 39 16 17 77.0 69.9 30.19 8.80 0.00 0.00 0.00 0.000
12:06am 8 33 39 16 18 77.0 69.9 30.19 8.80 0.00 0.00 0.00 0.000
12:07am 42 25 39 16 18 77.0 69.9 30.19 8.80 0.00 0.00 0.00 0.000
12:08am 29 17 39 16 18 77.0 69.8 30.19 8.80 0.00 0.00 0.00 0.000
12:09am 30 24 39 16 18 77.0 69.8 30.19 8.80 0.00 0.00 0.00 0.000
12:10am 44 17 39 16 18 77.0 69.8 30.19 8.80 0.00 0.00 0.00 0.000
12:11am 30 31 39 16 18 76.8 69.8 30.19 8.80 0.00 0.00 0.00 0.000
12:12am 49 29 39 16 18 76.8 69.8 30.19 8.80 0.00 0.00 0.00 0.000
12:13am 17 27 39 16 18 76.8 69.9 30.19 8.80 0.00 0.00 0.00 0.000
12:14am 21 30 39 16 18 76.8 69.9 30.18 8.80 0.00 0.00 0.00 0.000
12:15am 9 23 39 16 18 76.8 70.0 30.18 8.80 0.00 0.00 0.00 0.000
12:16am 22 25 34 16 17 76.8 70.0 30.19 8.80 0.00 0.00 0.00 0.000
12:17am 13 26 34 16 17 76.8 70.0 30.19 8.80 0.00 0.00 0.00 0.000
12:18am 15 23 34 16 17 76.8 70.0 30.19 8.80 0.00 0.00 0.00 0.000
12:19am 50 16 34 16 18 76.8 70.0 30.19 8.80 0.00 0.00 0.00 0.000
12:20am 52 28 39 16 18 76.8 69.9 30.19 8.80 0.00 0.00 0.00 0.000
12:21am 27 31 39 16 17 76.8 69.9 30.19 8.80 0.00 0.00 0.00 0.000
12:22am 26 25 39 16 17 76.8 70.0 30.18 8.80 0.00 0.00 0.00 0.000
12:23am 39 30 39 16 17 76.8 69.9 30.19 8.80 0.00 0.00 0.00 0.000
12:24am 31 31 39 16 17 76.8 70.0 30.18 8.80 0.00 0.00 0.00 0.000
12:25am 33 20 39 16 17 76.8 70.0 30.19 8.80 0.00 0.00 0.00 0.000
12:26am 39 22 39 16 18 76.8 69.9 30.19 8.80 0.00 0.00 0.00 0.000
12:27am 41 29 39 16 17 76.8 69.9 30.19 8.80 0.00 0.00 0.00 0.000
12:28am 7 27 39 16 18 76.8 69.9 30.18 8.80 0.00 0.00 0.00 0.000
12:29am 36 26 39 16 17 76.8 70.0 30.18 8.80 0.00 0.00 0.00 0.000
12:30am 17 24 39 16 17 76.8 70.0 30.19 8.80 0.00 0.00 0.00 0.000
12:31am 46 24 25 16 17 76.8 69.9 30.19 8.80 0.00 0.00 0.00 0.000
12:32am 48 25 36 16 17 76.8 69.9 30.19 8.80 0.00 0.00 0.00 0.000
12:33am 20 27 36 16 17 76.8 69.9 30.19 8.80 0.00 0.00 0.00 0.000
12:34am 40 30 37 16 17 76.8 69.9 30.18 8.80 0.00 0.00 0.00 0.000
12:35am 32 18 37 16 17 76.8 69.9 30.18 8.80 0.00 0.00 0.00 0.000
12:36am 18 18 37 16 17 76.8 69.9 30.19 8.80 0.00 0.00 0.00 0.000
12:37am 32 21 37 16 17 76.8 69.9 30.19 8.80 0.00 0.00 0.00 0.000
12:38am 13 25 37 16 18 76.8 69.8 30.18 8.80 0.00 0.00 0.00 0.000
12:39am 9 30 37 16 18 76.8 69.7 30.18 8.80 0.00 0.00 0.00 0.000
12:39am 7 29 37 16 18 76.8 69.7 30.18 8.80 0.00 0.00 0.00 0.000
12:41am 49 26 37 16 17 76.6 69.7 30.18 8.80 0.00 0.00 0.00 0.000
12:42am 38 18 37 16 18 76.6 69.7 30.19 8.80 0.00 0.00 0.00 0.000
12:43am 26 34 38 16 18 76.6 69.6 30.18 8.80 0.00 0.00 0.00 0.000
12:44am 4 23 38 16 18 76.6 69.6 30.18 8.80 0.00 0.00 0.00 0.000
12:45am 32 34 38 16 18 76.6 69.7 30.18 8.80 0.00 0.00 0.00 0.000
12:46am 32 23 34 16 18 76.6 69.7 30.18 8.80 0.00 0.00 0.00 0.000
12:47am 34 17 34 16 18 76.6 69.6 30.19 8.80 0.00 0.00 0.00 0.000
12:48am 47 30 36 16 18 76.6 69.6 30.19 8.80 0.00 0.00 0.00 0.000
12:49am 52 23 36 16 18 76.6 69.5 30.18 8.80 0.00 0.00 0.00 0.000
12:50am 22 30 36 16 18 76.6 69.5 30.18 8.80 0.00 0.00 0.00 0.000
12:51am 38 24 36 16 18 76.6 69.4 30.18 8.80 0.00 0.00 0.00 0.000
12:52am 12 20 36 16 18 76.6 69.3 30.19 8.80 0.00 0.00 0.00 0.000
12:53am 55 23 36 16 18 76.6 69.3 30.18 8.80 0.00 0.00 0.00 0.000
12:54am 13 33 36 16 18 76.6 69.3 30.18 8.80 0.00 0.00 0.00 0.000
12:55am 19 28 44 16 18 76.6 69.3 30.18 8.80 0.00 0.00 0.00 0.000
12:56am 30 33 44 16 18 76.6 69.3 30.18 8.80 0.00 0.00 0.00 0.000
12:57am 23 30 44 16 18 76.6 69.3 30.18 8.80 0.00 0.00 0.00 0.000
12:58am 47 28 44 16 18 76.6 69.4 30.18 8.80 0.00 0.00 0.00 0.000
12:59am 15 20 44 16 18 76.6 69.3 30.18 8.80 0.00 0.00 0.00 0.000
1:00am 36 33 44 16 18 76.6 69.3 30.17 8.80 0.00 0.00 0.00 0.000
1:01am 16 25 34 16 18 76.6 69.4 30.17 8.80 0.00 0.00 0.00 0.000
1:02am 17 33 36 16 18 76.6 69.5 30.17 8.80 0.00 0.00 0.00 0.000
1:03am 32 27 37 16 18 76.6 69.5 30.17 8.80 0.00 0.00 0.00 0.000
1:04am 35 34 37 16 18 76.6 69.5 30.17 8.80 0.00 0.00 0.00 0.000
1:05am 359 35 40 16 18 76.6 69.5 30.18 8.80 0.00 0.00 0.00 0.000
1:06am 21 33 43 16 18 76.6 69.5 30.17 8.80 0.00 0.00 0.00 0.000
1:07am 32 26 44 16 18 76.6 69.4 30.17 8.80 0.00 0.00 0.00 0.000
1:08am 20 32 44 16 18 76.6 69.4 30.17 8.80 0.00 0.00 0.00 0.000
1:09am 15 34 44 16 18 76.6 69.3 30.17 8.80 0.00 0.00 0.00 0.000
1:10am 13 35 44 16 18 76.6 69.3 30.17 8.80 0.00 0.00 0.00 0.000
1:11am 359 37 44 16 18 76.6 69.2 30.17 8.80 0.00 0.00 0.00 0.000
1:12am 16 25 44 16 18 76.6 69.1 30.17 8.80 0.00 0.00 0.00 0.000
1:13am 32 34 44 16 18 76.6 69.1 30.18 8.80 0.00 0.00 0.00 0.000
1:14am 2 32 44 16 18 76.6 69.0 30.17 8.80 0.00 0.00 0.00 0.000
1:15am 56 22 44 16 18 76.6 69.0 30.17 8.80 0.00 0.00 0.00 0.000
1:16am 22 27 33 16 18 76.6 69.0 30.18 8.80 0.00 0.00 0.00 0.000
1:17am 16 32 35 16 18 76.5 69.0 30.17 8.80 0.00 0.00 0.00 0.000
1:18am 32 28 35 16 18 76.5 69.0 30.17 8.80 0.00 0.00 0.00 0.000
1:19am 52 20 35 16 18 76.5 68.9 30.18 8.80 0.00 0.00 0.00 0.000
1:20am 11 29 35 16 18 76.5 68.9 30.18 8.80 0.00 0.00 0.00 0.000
1:21am 22 22 36 16 18 76.5 68.9 30.18 8.80 0.00 0.00 0.00 0.000
1:22am 41 23 39 16 18 76.5 68.9 30.18 8.80 0.00 0.00 0.00 0.000
1:23am 27 32 39 16 18 76.5 68.9 30.18 8.80 0.00 0.00 0.00 0.000
1:24am 35 18 39 16 18 76.5 68.9 30.18 8.80 0.00 0.00 0.00 0.000
1:25am 28 32 40 16 18 76.5 69.0 30.18 8.80 0.00 0.00 0.00 0.000
1:26am 27 26 40 16 18 76.5 69.1 30.18 8.80 0.00 0.00 0.00 0.000
1:27am 43 20 40 16 18 76.5 69.0 30.18 8.80 0.00 0.00 0.00 0.000
1:28am 10 37 40 16 18 76.5 68.9 30.18 8.80 0.00 0.00 0.00 0.000
1:29am 35 31 42 16 18 76.5 68.9 30.17 8.80 0.00 0.00 0.00 0.000
1:30am 24 28 42 16 18 76.5 68.9 30.18 8.80 0.00 0.00 0.00 0.000
1:30am 26 33 33 16 19 76.5 68.8 30.18 8.80 0.00 0.00 0.00 0.000
1:32am 353 38 38 16 19 76.5 68.8 30.18 8.80 0.00 0.00 0.00 0.000
1:32am 22 36 38 16 19 76.5 68.8 30.17 8.80 0.00 0.00 0.00 0.000
1:34am 13 24 38 16 19 76.5 68.8 30.17 8.80 0.00 0.00 0.00 0.000
1:35am 25 25 38 16 19 76.5 68.7 30.18 8.80 0.00 0.00 0.00 0.000
1:36am 40 33 38 16 19 76.5 68.7 30.18 8.80 0.00 0.00 0.00 0.000
1:37am 45 32 39 16 19 76.5 68.8 30.17 8.80 0.00 0.00 0.00 0.000
1:38am 17 25 39 16 19 76.5 68.9 30.18 8.80 0.00 0.00 0.00 0.000
1:39am 9 30 39 16 19 76.5 68.9 30.18 8.80 0.00 0.00 0.00 0.000
1:40am 352 24 39 16 19 76.5 68.8 30.18 8.80 0.00 0.00 0.00 0.000
1:41am 24 29 39 16 19 76.5 68.7 30.18 8.80 0.00 0.00 0.00 0.000
1:42am 21 33 40 16 19 76.5 68.7 30.16 8.80 0.00 0.00 0.00 0.000
1:43am 0 26 40 16 19 76.5 68.5 30.17 8.80 0.00 0.00 0.00 0.000
1:44am 1 33 40 16 19 76.5 68.5 30.17 8.80 0.00 0.00 0.00 0.000
1:45am 36 34 40 16 19 76.5 68.4 30.17 8.80 0.00 0.00 0.00 0.000
1:46am 48 31 42 16 19 76.3 68.4 30.17 8.80 0.00 0.00 0.00 0.000
1:47am 36 28 43 16 19 76.3 68.5 30.17 8.80 0.00 0.00 0.00 0.000
1:48am 11 33 43 16 19 76.3 68.6 30.17 8.80 0.00 0.00 0.00 0.000
1:49am 42 27 43 16 19 76.3 68.7 30.18 8.80 0.00 0.00 0.00 0.000
1:50am 32 30 43 16 19 76.3 68.7 30.17 8.80 0.00 0.00 0.00 0.000
1:51am 3 33 43 16 19 76.3 68.7 30.17 8.80 0.00 0.00 0.00 0.000
1:52am 36 29 43 16 19 76.3 68.8 30.17 8.80 0.00 0.00 0.00 0.000
1:53am 35 20 43 16 19 76.3 68.8 30.18 8.80 0.00 0.00 0.00 0.000
1:54am 26 35 43 16 19 76.3 68.8 30.17 8.80 0.00 0.00 0.00 0.000
1:55am 16 33 43 16 19 76.3 68.7 30.17 8.80 0.00 0.00 0.00 0.000
1:56am 8 33 43 16 19 76.3 68.8 30.17 8.80 0.00 0.00 0.00 0.000
1:57am 13 32 43 16 19 76.3 68.8 30.17 8.80 0.00 0.00 0.00 0.000
1:58am 4 20 43 16 19 76.3 68.8 30.17 8.80 0.00 0.00 0.00 0.000
1:59am 23 25 43 16 19 76.3 68.8 30.17 8.80 0.00 0.00 0.00 0.000
2:00am 36 25 43 16 19 76.3 68.8 30.17 8.80 0.00 0.00 0.00 0.000
2:01am 26 29 33 16 19 76.3 68.8 30.17 8.80 0.00 0.00 0.00 0.000
2:02am 28 28 38 16 19 76.3 68.8 30.17 8.80 0.00 0.00 0.00 0.000
2:03am 29 26 38 16 19 76.3 68.8 30.17 8.80 0.00 0.00 0.00 0.000
2:04am 33 26 38 16 19 76.3 68.7 30.17 8.80 0.00 0.00 0.00 0.000
2:05am 5 27 38 16 19 76.3 68.7 30.17 8.80 0.00 0.00 0.00 0.000
2:06am 28 24 41 16 19 76.3 68.6 30.17 8.80 0.00 0.00 0.00 0.000
2:07am 17 32 41 16 19 76.3 68.6 30.17 8.80 0.00 0.00 0.00 0.000
2:08am 35 31 41 16 19 76.3 68.6 30.17 8.80 0.00 0.00 0.00 0.000
2:09am 38 25 41 16 19 76.3 68.6 30.17 8.80 0.00 0.00 0.00 0.000
2:10am 24 22 41 16 19 76.3 68.6 30.17 8.80 0.00 0.00 0.00 0.000
2:11am 4 29 41 16 19 76.3 68.4 30.17 8.80 0.00 0.00 0.00 0.000
2:12am 11 40 46 16 19 76.3 68.4 30.16 8.80 0.00 0.00 0.00 0.000
2:13am 341 25 46 16 19 76.3 68.5 30.16 8.80 0.00 0.00 0.00 0.000
2:14am 14 26 46 16 19 76.3 68.5 30.17 8.80 0.00 0.00 0.00 0.000
2:15am 11 32 46 17 19 76.3 68.5 30.17 8.80 0.00 0.00 0.00 0.000
2:16am 16 35 43 17 19 76.3 68.6 30.16 8.80 0.00 0.00 0.00 0.000
2:17am 342 30 43 17 19 76.1 68.7 30.16 8.80 0.00 0.00 0.00 0.000
2:18am 20 33 43 17 19 76.1 68.6 30.16 8.80 0.00 0.00 0.00 0.000
2:19am 39 33 43 17 18 76.1 68.6 30.16 8.80 0.00 0.00 0.00 0.000
2:20am 341 25 43 17 19 76.1 68.8 30.16 8.80 0.00 0.00 0.00 0.000
2:21am 20 23 43 17 19 76.1 68.8 30.17 8.80 0.00 0.00 0.00 0.000
2:22am 359 45 45 17 18 76.1 68.9 30.17 8.80 0.00 0.00 0.00 0.000
2:23am 36 35 45 17 18 76.1 69.0 30.16 8.80 0.00 0.00 0.00 0.000
2:24am 17 31 45 17 18 76.1 69.0 30.17 8.80 0.00 0.00 0.00 0.000
2:25am 32 33 45 17 18 76.1 69.1 30.17 8.80 0.00 0.00 0.00 0.000
2:26am 27 28 45 17 18 76.1 69.1 30.16 8.80 0.00 0.00 0.00 0.000
2:27am 30 33 45 17 18 76.1 69.2 30.17 8.80 0.00 0.00 0.00 0.000
2:28am 42 18 45 17 18 76.1 69.2 30.17 8.80 0.00 0.00 0.00 0.000
2:29am 23 24 45 17 18 76.1 69.2 30.17 8.80 0.00 0.00 0.00 0.000
2:30am 3 33 45 17 18 76.1 69.1 30.17 8.80 0.00 0.00 0.00 0.000
2:31am 30 28 40 17 18 76.1 69.1 30.17 8.80 0.00 0.00 0.00 0.000
2:32am 34 34 40 17 18 76.1 69.1 30.17 8.80 0.00 0.00 0.00 0.000
2:33am 36 26 40 17 18 76.1 69.1 30.16 8.80 0.00 0.00 0.00 0.000
2:34am 38 24 40 17 18 76.1 69.1 30.16 8.80 0.00 0.00 0.00 0.000
2:35am 69 23 40 17 18 76.1 69.1 30.17 8.80 0.00 0.00 0.00 0.000
2:36am 28 27 40 17 18 76.1 69.1 30.17 8.80 0.00 0.00 0.00 0.000
2:37am 23 43 48 17 18 76.1 69.1 30.15 8.80 0.00 0.00 0.00 0.000
2:38am 30 22 48 17 18 76.1 69.1 30.16 8.80 0.00 0.00 0.00 0.000
2:39am 17 30 48 17 18 76.1 69.1 30.18 8.80 0.00 0.00 0.00 0.000
2:40am 42 33 48 17 18 76.1 69.2 30.16 8.80 0.00 0.00 0.00 0.000
2:41am 48 18 48 17 18 76.1 69.2 30.16 8.80 0.00 0.00 0.00 0.000
2:42am 36 30 48 17 18 76.1 69.2 30.17 8.80 0.00 0.00 0.00 0.000
2:43am 22 35 48 17 18 76.1 69.2 30.17 8.80 0.00 0.00 0.00 0.000
2:44am 28 30 48 17 18 76.1 69.2 30.15 8.80 0.00 0.00 0.00 0.000
2:45am 55 30 48 17 18 75.9 69.2 30.16 8.80 0.00 0.00 0.00 0.000
2:46am 50 31 34 17 18 75.9 69.2 30.16 8.80 0.00 0.00 0.00 0.000
2:47am 49 23 34 17 18 75.9 69.2 30.16 8.80 0.00 0.00 0.00 0.000
2:48am 9 29 35 17 18 75.9 69.2 30.17 8.80 0.00 0.00 0.00 0.000
2:49am 0 28 35 17 18 75.9 69.1 30.16 8.80 0.00 0.00 0.00 0.000
2:50am 30 29 36 17 18 75.9 69.1 30.16 8.80 0.00 0.00 0.00 0.000
2:51am 10 27 38 17 18 75.9 69.1 30.16 8.80 0.00 0.00 0.00 0.000
2:52am 51 27 38 17 18 75.9 69.1 30.16 8.80 0.00 0.00 0.00 0.000
2:53am 38 26 38 17 18 75.9 69.0 30.16 8.80 0.00 0.00 0.00 0.000
2:54am 0 35 41 17 19 75.9 68.9 30.16 8.80 0.00 0.00 0.00 0.000
2:55am 7 24 41 17 18 75.9 68.8 30.15 8.80 0.00 0.00 0.00 0.000
2:56am 31 31 41 17 18 75.9 68.7 30.17 8.80 0.00 0.00 0.00 0.000
2:57am 27 22 41 17 19 75.9 68.8 30.16 8.80 0.00 0.00 0.00 0.000
2:58am 30 27 41 17 19 75.9 68.8 30.17 8.80 0.00 0.00 0.00 0.000
2:59am 359 31 41 17 18 75.9 68.8 30.16 8.80 0.00 0.00 0.00 0.000
3:00am 30 26 41 17 19 75.9 68.8 30.16 8.80 0.00 0.00 0.00 0.000
3:01am 16 21 31 17 19 75.9 68.8 30.16 8.80 0.00 0.00 0.00 0.000
3:02am 5 35 40 17 19 75.9 68.7 30.16 8.80 0.00 0.00 0.00 0.000
3:03am 21 20 41 17 19 75.9 68.7 30.16 8.80 0.00 0.00 0.00 0.000
3:04am 17 37 41 17 19 75.9 68.6 30.16 8.80 0.00 0.00 0.00 0.000
3:05am 27 31 41 17 19 75.9 68.6 30.16 8.80 0.00 0.00 0.00 0.000
3:06am 26 29 41 17 19 75.9 68.6 30.16 8.80 0.00 0.00 0.00 0.000
3:07am 17 31 41 17 19 75.9 68.6 30.16 8.80 0.00 0.00 0.00 0.000
3:08am 31 36 41 17 19 75.9 68.6 30.15 8.80 0.00 0.00 0.00 0.000
3:09am 37 36 41 17 19 75.9 68.6 30.15 8.80 0.00 0.00 0.00 0.000
3:10am 36 30 41 17 19 75.9 68.6 30.15 8.80 0.00 0.00 0.00 0.000
3:11am 22 20 41 17 18 75.9 68.8 30.16 8.80 0.00 0.00 0.00 0.000
3:12am 55 38 41 17 19 75.9 68.8 30.16 8.80 0.00 0.00 0.00 0.000
3:13am 38 35 43 17 19 75.9 68.7 30.15 8.80 0.00 0.00 0.00 0.000
3:14am 39 33 43 17 19 75.9 68.7 30.15 8.80 0.00 0.00 0.00 0.000
3:14am 17 34 43 17 19 75.9 68.7 30.16 8.80 0.00 0.00 0.00 0.000
3:16am 3 20 41 17 19 75.9 68.6 30.16 8.80 0.00 0.00 0.00 0.000
3:17am 26 35 41 17 19 75.9 68.5 30.16 8.80 0.00 0.00 0.00 0.000
3:18am 36 30 45 17 19 75.9 68.4 30.16 8.80 0.00 0.00 0.00 0.000
3:19am 18 31 45 17 19 75.9 68.4 30.14 8.80 0.00 0.00 0.00 0.000
3:20am 22 31 45 17 19 75.9 68.4 30.14 8.80 0.00 0.00 0.00 0.000
3:21am 44 25 45 17 19 75.9 68.4 30.16 8.80 0.00 0.00 0.00 0.000
3:22am 5 28 45 17 19 75.9 68.3 30.16 8.80 0.00 0.00 0.00 0.000
3:23am 35 23 45 17 19 75.8 68.3 30.17 8.80 0.00 0.00 0.00 0.000
3:24am 30 35 45 17 19 75.8 68.3 30.16 8.80 0.00 0.00 0.00 0.000
3:25am 49 23 45 17 19 75.8 68.2 30.16 8.80 0.00 0.00 0.00 0.000
3:26am 22 27 45 17 19 75.8 68.2 30.17 8.80 0.00 0.00 0.00 0.000
3:27am 30 28 45 17 19 75.8 68.2 30.16 8.80 0.00 0.00 0.00 0.000
3:28am 13 20 45 17 19 75.8 68.1 30.17 8.80 0.00 0.00 0.00 0.000
3:29am 28 35 45 17 19 75.8 68.1 30.16 8.80 0.00 0.00 0.00 0.000
3:30am 23 22 45 17 19 75.8 68.1 30.16 8.80 0.00 0.00 0.00 0.000
3:31am 5 23 37 17 19 75.8 68.2 30.17 8.80 0.00 0.00 0.00 0.000
3:32am 26 34 37 17 19 75.8 68.2 30.16 8.80 0.00 0.00 0.00 0.000
3:33am 20 28 39 17 19 75.8 68.2 30.17 8.80 0.00 0.00 0.00 0.000
3:34am 30 35 40 17 19 75.8 68.2 30.16 8.80 0.00 0.00 0.00 0.000
3:35am 16 33 40 17 19 75.8 68.2 30.16 8.80 0.00 0.00 0.00 0.000
3:36am 12 36 40 17 19 75.8 68.1 30.17 8.80 0.00 0.00 0.00 0.000
3:37am 24 20 40 17 19 75.8 68.0 30.16 8.80 0.00 0.00 0.00 0.000
3:38am 9 24 40 17 19 75.8 67.9 30.16 8.80 0.00 0.00 0.00 0.000
3:39am 34 28 40 17 19 75.8 67.8 30.16 8.80 0.00 0.00 0.00 0.000
3:40am 42 23 40 17 19 75.8 67.7 30.17 8.80 0.00 0.00 0.00 0.000
3:41am 9 39 40 17 19 75.8 67.8 30.18 8.80 0.00 0.00 0.00 0.000
3:42am 9 34 41 17 19 75.8 67.9 30.18 8.80 0.00 0.00 0.00 0.000
3:43am 30 22 41 17 19 75.8 68.0 30.17 8.80 0.00 0.00 0.00 0.000
3:44am 21 33 41 17 19 75.8 68.0 30.17 8.80 0.00 0.00 0.00 0.000
3:45am 9 33 41 17 19 75.8 68.1 30.16 8.80 0.00 0.00 0.00 0.000
3:46am 30 24 35 17 19 75.8 68.1 30.16 8.80 0.00 0.00 0.00 0.000
3:47am 38 27 40 17 19 75.8 68.2 30.17 8.80 0.00 0.00 0.00 0.000
3:48am 38 25 40 17 19 75.8 68.3 30.17 8.80 0.00 0.00 0.00 0.000
3:49am 42 41 41 17 19 75.8 68.3 30.17 8.80 0.00 0.00 0.00 0.000
3:50am 32 35 41 17 18 75.8 68.4 30.16 8.80 0.00 0.00 0.00 0.000
3:51am 19 40 41 17 18 75.8 68.5 30.16 8.80 0.00 0.00 0.00 0.000
3:52am 20 37 41 17 18 75.8 68.5 30.15 8.80 0.00 0.00 0.00 0.000
3:53am 11 25 41 17 19 75.8 68.6 30.16 8.80 0.00 0.00 0.00 0.000
3:54am 39 27 41 17 19 75.8 68.5 30.16 8.80 0.00 0.00 0.00 0.000
3:55am 44 27 41 17 19 75.8 68.4 30.16 8.80 0.00 0.00 0.00 0.000
3:56am 19 34 41 17 19 75.6 68.4 30.16 8.80 0.00 0.00 0.00 0.000
3:57am 2 23 41 17 19 75.6 68.4 30.15 8.80 0.00 0.00 0.00 0.000
3:58am 22 22 41 17 19 75.6 68.4 30.16 8.80 0.00 0.00 0.00 0.000
3:59am 45 33 42 17 18 75.6 68.4 30.16 8.80 0.00 0.00 0.00 0.000
4:00am 23 26 42 17 18 75.6 68.4 30.16 8.80 0.00 0.00 0.00 0.000
4:01am 12 32 45 17 18 75.6 68.5 30.16 8.80 0.00 0.00 0.00 0.000
4:02am 35 40 45 17 19 75.6 68.5 30.16 8.80 0.00 0.00 0.00 0.000
4:03am 359 29 45 17 19 75.6 68.5 30.16 8.80 0.00 0.00 0.00 0.000
4:04am 20 25 45 17 18 75.6 68.4 30.15 8.80 0.00 0.00 0.00 0.000
4:05am 20 23 45 17 18 75.6 68.4 30.16 8.80 0.00 0.00 0.00 0.000
4:06am 23 21 45 17 18 75.6 68.4 30.17 8.80 0.00 0.00 0.00 0.000
4:06am 13 35 45 17 19 75.6 68.4 30.16 8.80 0.00 0.00 0.00 0.000
4:08am 23 32 45 17 19 75.6 68.3 30.16 8.80 0.00 0.00 0.00 0.000
4:09am 8 20 45 17 19 75.6 68.2 30.17 8.80 0.00 0.00 0.00 0.000
4:10am 30 27 45 17 19 75.6 68.2 30.17 8.80 0.00 0.00 0.00 0.000
4:11am 26 25 45 17 19 75.6 68.2 30.17 8.80 0.00 0.00 0.00 0.000
4:12am 5 25 45 17 19 75.6 68.2 30.16 8.80 0.00 0.00 0.00 0.000
4:13am 22 29 45 17 19 75.6 68.2 30.16 8.80 0.00 0.00 0.00 0.000
4:14am 18 19 45 17 19 75.6 68.3 30.16 8.80 0.00 0.00 0.00 0.000
4:15am 19 23 45 17 19 75.6 68.3 30.17 8.80 0.00 0.00 0.00 0.000
4:16am 9 33 36 17 18 75.6 68.3 30.16 8.80 0.00 0.00 0.00 0.000
4:16am 17 18 38 17 18 75.6 68.4 30.16 8.80 0.00 0.00 0.00 0.000
4:18am 0 27 38 17 18 75.6 68.4 30.17 8.80 0.00 0.00 0.00 0.000
4:19am 28 22 38 17 18 75.6 68.4 30.16 8.80 0.00 0.00 0.00 0.000
4:20am 21 28 38 17 18 75.6 68.4 30.16 8.80 0.00 0.00 0.00 0.000
4:21am 31 33 39 17 18 75.6 68.5 30.16 8.80 0.00 0.00 0.00 0.000
4:22am 24 28 39 17 19 75.6 68.4 30.17 8.80 0.00 0.00 0.00 0.000
4:23am 9 25 39 17 19 75.4 68.3 30.17 8.80 0.00 0.00 0.00 0.000
4:24am 27 22 39 17 19 75.4 68.2 30.17 8.80 0.00 0.00 0.00 0.000
4:25am 20 31 39 17 19 75.4 68.2 30.17 8.80 0.00 0.00 0.00 0.000
4:26am 19 38 40 17 18 75.4 68.2 30.17 8.80 0.00 0.00 0.00 0.000
4:27am 42 22 40 17 18 75.4 68.3 30.16 8.80 0.00 0.00 0.00 0.000
4:28am 12 41 41 17 18 75.4 68.4 30.16 8.80 0.00 0.00 0.00 0.000
4:29am 24 17 41 17 18 75.4 68.3 30.15 8.80 0.00 0.00 0.00 0.000
4:30am 16 23 41 17 19 75.4 68.3 30.17 8.80 0.00 0.00 0.00 0.000
4:31am 357 20 33 17 18 75.4 68.3 30.16 8.80 0.00 0.00 0.00 0.000
4:32am 11 29 41 17 18 75.4 68.3 30.15 8.80 0.00 0.00 0.00 0.000
4:33am 26 28 41 17 18 75.4 68.3 30.16 8.80 0.00 0.00 0.00 0.000
4:34am 47 27 41 17 18 75.4 68.3 30.16 8.80 0.00 0.00 0.00 0.000
4:35am 47 22 41 17 18 75.4 68.3 30.16 8.80 0.00 0.00 0.00 0.000
4:36am 28 27 41 17 18 75.4 68.3 30.17 8.80 0.00 0.00 0.00 0.000
4:37am 24 27 41 17 18 75.4 68.3 30.16 8.80 0.00 0.00 0.00 0.000
4:38am 18 33 41 17 18 75.4 68.3 30.15 8.80 0.00 0.00 0.00 0.000
4:39am 15 31 41 17 18 75.4 68.4 30.16 8.80 0.00 0.00 0.00 0.000
4:40am 11 31 41 17 18 75.4 68.5 30.15 8.80 0.00 0.00 0.00 0.000
4:41am 2 32 41 17 18 75.4 68.4 30.15 8.80 0.00 0.00 0.00 0.000
4:42am 28 39 41 17 18 75.4 68.4 30.16 8.80 0.00 0.00 0.00 0.000
4:43am 40 30 41 17 18 75.4 68.4 30.15 8.80 0.00 0.00 0.00 0.000
4:44am 26 30 41 17 18 75.4 68.4 30.16 8.80 0.00 0.00 0.00 0.000
4:45am 35 26 41 17 18 75.4 68.4 30.16 8.80 0.00 0.00 0.00 0.000
4:46am 38 25 34 17 18 75.4 68.4 30.16 8.80 0.00 0.00 0.00 0.000
4:47am 22 20 34 17 18 75.4 68.4 30.16 8.80 0.00 0.00 0.00 0.000
4:48am 18 28 34 17 18 75.4 68.3 30.17 8.80 0.00 0.00 0.00 0.000
4:49am 50 32 41 17 18 75.4 68.2 30.15 8.80 0.00 0.00 0.00 0.000
4:50am 20 34 41 17 19 75.4 68.1 30.15 8.80 0.00 0.00 0.00 0.000
4:51am 0 24 41 17 18 75.4 68.1 30.16 8.80 0.00 0.00 0.00 0.000
4:52am 39 30 41 17 18 75.4 68.1 30.16 8.80 0.00 0.00 0.00 0.000
4:53am 6 34 41 17 18 75.4 68.2 30.16 8.80 0.00 0.00 0.00 0.000
4:54am 56 24 45 17 18 75.2 68.2 30.15 8.80 0.00 0.00 0.00 0.000
4:55am 23 31 45 17 18 75.2 68.3 30.15 8.80 0.00 0.00 0.00 0.000
4:56am 17 25 45 17 18 75.2 68.4 30.15 8.80 0.00 0.00 0.00 0.000
4:57am 19 27 49 17 18 75.2 68.5 30.15 8.80 0.00 0.00 0.00 0.000
4:58am 31 29 49 17 18 75.2 68.5 30.15 8.80 0.00 0.00 0.00 0.000
4:59am 9 32 49 17 18 75.2 68.4 30.16 8.80 0.00 0.00 0.00 0.000
5:00am 32 32 49 17 18 75.2 68.5 30.16 8.80 0.00 0.00 0.00 0.000
5:01am 40 27 35 17 18 75.2 68.5 30.16 8.80 0.00 0.00 0.00 0.000
5:02am 34 23 46 17 18 75.2 68.4 30.16 8.80 0.00 0.00 0.00 0.000
5:03am 53 27 46 17 18 75.2 68.3 30.17 8.80 0.00 0.00 0.00 0.000
5:04am 58 27 46 17 18 75.2 68.2 30.16 8.80 0.00 0.00 0.00 0.000
5:05am 32 36 46 17 18 75.2 68.2 30.16 8.80 0.00 0.00 0.00 0.000
5:06am 47 33 46 17 18 75.2 68.2 30.15 8.80 0.00 0.00 0.00 0.000
5:07am 34 36 46 17 18 75.2 68.1 30.16 8.80 0.00 0.00 0.00 0.000
5:08am 32 21 46 17 18 75.2 68.0 30.16 8.80 0.00 0.00 0.00 0.000
5:09am 24 33 46 17 18 75.2 67.9 30.16 8.80 0.00 0.00 0.00 0.000
5:10am 31 31 46 17 19 75.2 67.9 30.17 8.80 0.00 0.00 0.00 0.000
5:11am 27 26 46 17 18 75.2 67.9 30.16 8.80 0.00 0.00 0.00 0.000
5:12am 40 38 46 17 18 75.2 67.9 30.16 8.80 0.00 0.00 0.00 0.000
5:13am 9 23 46 17 18 75.2 67.9 30.16 8.80 0.00 0.00 0.00 0.000
5:14am 3 29 46 17 19 75.2 67.9 30.16 8.80 0.00 0.00 0.00 0.000
5:15am 30 33 46 17 19 75.2 67.8 30.16 8.80 0.00 0.00 0.00 0.000
5:16am 16 18 37 17 19 75.2 67.7 30.17 8.80 0.00 0.00 0.00 0.000
5:17am 38 27 37 17 19 75.2 67.7 30.17 8.80 0.00 0.00 0.00 0.000
5:18am 36 40 43 17 19 75.2 67.6 30.17 8.80 0.00 0.00 0.00 0.000
5:19am 35 20 44 17 19 75.2 67.5 30.16 8.80 0.00 0.00 0.00 0.000
5:20am 28 39 44 17 19 75.2 67.5 30.17 8.80 0.00 0.00 0.00 0.000
5:21am 16 35 44 17 19 75.2 67.5 30.16 8.80 0.00 0.00 0.00 0.000
5:22am 35 33 44 17 19 75.2 67.6 30.16 8.80 0.00 0.00 0.00 0.000
5:23am 8 37 44 17 19 75.2 67.7 30.17 8.80 0.00 0.00 0.00 0.000
5:24am 28 24 44 17 19 75.2 67.7 30.16 8.80 0.00 0.00 0.00 0.000
5:25am 23 21 44 17 19 75.1 67.7 30.16 8.80 0.00 0.00 0.00 0.000
5:26am 26 25 44 17 18 75.1 67.8 30.16 8.80 0.00 0.00 0.00 0.000
5:27am 15 30 44 17 18 75.1 67.9 30.16 8.80 0.00 0.00 0.00 0.000
5:28am 19 33 44 17 18 75.1 68.0 30.17 8.80 0.00 0.00 0.00 0.000
5:29am 21 26 44 17 18 75.1 68.1 30.16 8.80 0.00 0.00 0.00 0.000
5:30am 15 35 44 17 18 75.1 68.1 30.17 8.80 0.00 0.00 0.00 0.000
5:31am 26 27 38 17 18 75.1 68.0 30.16 8.80 0.00 0.00 0.00 0.000
5:32am 31 24 38 17 19 75.1 67.9 30.17 8.80 0.00 0.00 0.00 0.000
5:33am 355 26 41 17 18 75.1 67.9 30.17 8.80 0.00 0.00 0.00 0.000
5:34am 34 30 41 17 19 75.1 67.8 30.17 8.80 0.00 0.00 0.00 0.000
5:35am 24 31 41 17 18 75.1 67.8 30.17 8.80 0.00 0.00 0.00 0.000
5:36am 19 32 41 17 19 75.1 67.8 30.17 8.80 0.00 0.00 0.00 0.000
5:37am 23 24 45 17 19 75.1 67.8 30.17 8.80 0.00 0.00 0.00 0.000
5:38am 22 28 45 17 19 75.1 67.8 30.17 8.80 0.00 0.00 0.00 0.000
5:39am 20 24 45 17 19 75.1 67.7 30.18 8.80 0.00 0.00 0.00 0.000
5:40am 51 26 45 17 19 75.1 67.8 30.16 8.80 0.00 0.00 0.00 0.000
5:41am 17 31 45 17 19 75.1 67.7 30.17 8.80 0.00 0.00 0.00 0.000
5:42am 16 20 45 17 19 75.1 67.7 30.16 8.80 0.00 0.00 0.00 0.000
5:43am 34 22 45 17 19 75.1 67.6 30.17 8.80 0.00 0.00 0.00 0.000
5:44am 61 14 45 17 19 75.1 67.5 30.17 8.80 0.00 0.00 0.00 0.000
5:45am 24 25 45 17 19 75.1 67.4 30.18 8.80 0.00 0.00 0.00 0.000
5:46am 4 40 40 17 19 75.1 67.3 30.17 8.80 0.00 0.00 0.00 0.000
5:47am 27 22 40 17 19 75.1 67.3 30.17 8.80 0.00 0.00 0.00 0.000
5:48am 19 28 40 17 19 75.1 67.2 30.17 8.80 0.00 0.00 0.00 0.000
5:49am 21 30 41 17 19 75.1 67.1 30.17 8.80 0.00 0.00 0.00 0.000
5:50am 3 30 41 17 19 75.1 67.0 30.16 8.80 0.00 0.00 0.00 0.000
5:51am 39 27 41 17 19 75.1 67.1 30.18 8.80 0.00 0.00 0.00 0.000
5:52am 16 33 41 17 19 75.1 67.1 30.17 8.80 0.00 0.00 0.00 0.000
5:53am 21 24 41 17 20 75.1 67.0 30.17 8.80 0.00 0.00 0.00 0.000
5:54am 340 32 41 17 19 75.1 67.0 30.17 8.80 0.00 0.00 0.00 0.000
5:54am 3 40 44 17 19 75.1 67.0 30.16 8.80 0.00 0.00 0.00 0.000
5:56am 63 19 45 17 20 75.1 67.0 30.16 8.80 0.00 0.00 0.00 0.000
5:57am 24 34 45 17 19 75.1 67.0 30.17 8.80 0.00 0.00 0.00 0.000
5:58am 1 39 45 17 19 75.1 67.1 30.16 8.80 0.00 0.00 0.00 0.000
5:59am 38 20 45 17 19 75.1 67.1 30.17 8.80 0.00 0.00 0.00 0.000
6:00am 34 37 45 17 19 75.1 67.1 30.17 8.80 0.00 0.00 0.00 0.000
6:01am 28 35 45 17 19 75.1 67.1 30.16 8.80 0.00 0.00 0.00 0.000
6:02am 9 27 45 17 20 74.9 67.1 30.16 8.80 0.00 0.00 0.00 0.000
6:03am 30 28 45 17 19 74.9 67.0 30.17 8.80 0.00 0.00 0.00 0.000
6:04am 23 43 45 17 20 74.9 66.9 30.17 8.80 0.00 0.00 0.00 0.000
6:04am 24 28 46 17 19 74.9 66.9 30.16 8.80 0.00 0.00 0.00 0.000
6:06am 28 32 46 17 20 74.9 66.8 30.17 8.80 0.00 0.00 0.00 0.000
6:07am 11 35 46 17 20 74.9 66.7 30.16 8.80 0.00 0.00 0.00 0.000
6:08am 5 21 46 17 20 74.9 66.6 30.16 8.80 0.00 0.00 0.00 0.000
6:09am 9 24 46 17 20 74.9 66.5 30.16 8.80 0.00 0.00 0.00 0.000
6:10am 33 33 46 17 20 74.9 66.5 30.16 8.80 0.00 0.00 0.00 0.000
6:11am 3 27 46 17 20 74.9 66.5 30.16 8.80 0.00 0.00 0.00 0.000
6:12am 9 32 46 17 20 74.9 66.4 30.16 8.80 0.00 0.00 0.00 0.000
6:13am 8 31 46 17 20 74.9 66.4 30.16 8.80 0.00 0.00 0.00 0.000
6:14am 19 23 46 17 20 74.9 66.4 30.17 8.80 0.00 0.00 0.00 0.000
6:15am 1 29 46 17 20 74.9 66.3 30.17 8.80 0.00 0.00 0.00 0.000
6:15am 39 27 45 17 20 74.9 66.3 30.16 8.80 0.00 0.00 0.00 0.000
6:17am 15 23 45 17 20 74.9 66.5 30.17 8.80 0.00 0.00 0.00 0.000
6:18am 9 35 45 17 20 74.9 66.6 30.17 8.80 0.00 0.00 0.00 0.000
6:19am 31 30 45 17 20 74.9 66.6 30.16 8.80 0.00 0.00 0.00 0.000
6:20am 19 26 45 17 20 74.9 66.5 30.17 8.80 0.00 0.00 0.00 0.000
6:21am 14 46 46 17 20 74.9 66.5 30.18 8.80 0.00 0.00 0.00 0.000
6:22am 10 34 46 17 20 74.9 66.5 30.16 8.80 0.00 0.00 0.00 0.000
6:23am 41 29 46 17 20 74.9 66.4 30.17 8.80 0.00 0.00 0.00 0.000
6:24am 23 40 46 17 20 74.9 66.4 30.18 8.80 0.00 0.00 0.00 0.000
6:25am 28 31 46 17 20 74.9 66.3 30.17 8.80 0.00 0.00 0.00 0.000
6:26am 0 21 46 17 20 74.9 66.1 30.16 8.80 0.00 0.00 0.00 0.000
6:27am 17 28 46 17 20 74.9 66.1 30.17 8.80 0.00 0.00 0.00 0.000
6:28am 62 15 46 17 20 74.9 66.1 30.17 8.80 0.00 0.00 0.00 0.000
6:29am 55 36 46 17 20 74.9 66.2 30.18 8.80 0.00 0.00 0.00 0.000
6:30am 13 28 46 17 20 74.9 66.3 30.17 8.80 0.00 0.00 0.00 0.000
6:31am 10 26 40 17 20 74.7 66.4 30.17 8.80 0.00 0.00 0.00 0.000
6:32am 26 21 40 17 20 74.7 66.4 30.18 8.80 0.00 0.00 0.00 0.000
6:33am 20 40 46 17 20 74.7 66.4 30.17 8.80 0.00 0.00 0.00 0.000
6:34am 20 26 46 17 20 74.7 66.4 30.17 8.80 0.00 0.00 0.00 0.000
6:35am 19 29 46 17 20 74.7 66.5 30.17 8.80 0.00 0.00 0.00 0.000
6:36am 19 33 46 17 20 74.7 66.6 30.18 8.80 0.00 0.00 0.00 0.000
6:37am 34 28 46 17 20 74.7 66.6 30.17 8.80 0.00 0.00 0.00 0.000
6:38am 9 34 46 17 20 74.7 66.6 30.18 8.80 0.00 0.00 0.00 0.000
6:39am 38 27 46 17 20 74.7 66.5 30.18 8.80 0.00 0.00 0.00 0.000
6:40am 31 37 46 17 20 74.7 66.4 30.18 8.80 0.00 0.00 0.00 0.000
6:41am 32 36 46 17 20 74.7 66.4 30.17 8.80 0.00 0.00 0.00 0.000
6:42am 30 31 46 17 20 74.7 66.4 30.18 8.80 0.00 0.00 0.00 0.000
6:43am 26 19 46 17 20 74.7 66.4 30.17 8.80 0.00 0.00 0.00 0.000
6:44am 27 26 46 17 20 74.7 66.4 30.18 8.80 0.00 0.00 0.00 0.000
6:45am 24 22 46 17 20 74.7 66.4 30.18 8.80 0.00 0.00 0.00 0.000
6:46am 17 28 41 17 20 74.7 66.4 30.18 8.80 0.00 0.00 0.00 0.000
6:47am 21 35 42 17 20 74.7 66.4 30.18 8.80 0.00 0.00 0.00 0.000
6:48am 30 26 42 17 20 74.7 66.5 30.18 8.80 0.00 0.00 0.00 0.000
6:49am 31 32 44 17 20 74.7 66.5 30.17 8.80 0.00 0.00 0.00 0.000
6:50am 42 32 44 17 20 74.7 66.6 30.17 8.80 0.00 0.00 0.00 0.000
6:51am 32 18 44 17 20 74.7 66.6 30.18 8.80 0.00 0.00 0.00 0.000
6:52am 30 32 44 17 20 74.7 66.6 30.17 8.80 0.00 0.00 0.00 0.000
6:53am 23 24 44 17 20 74.7 66.6 30.18 8.80 0.00 0.00 0.00 0.000
6:54am 11 29 44 17 19 74.7 66.7 30.18 8.80 0.00 0.00 0.00 0.000
6:55am 16 29 44 17 19 74.5 66.8 30.18 8.80 0.00 0.00 0.00 0.000
6:56am 11 31 44 17 20 74.5 66.9 30.18 8.80 0.00 0.00 0.00 0.000
6:57am 31 32 44 17 20 74.5 66.9 30.18 8.80 0.00 0.00 0.00 0.000
6:58am 344 31 44 17 20 74.5 66.9 30.18 8.80 0.00 0.00 0.00 0.000
6:59am 11 36 44 17 20 74.5 66.8 30.18 8.80 0.00 0.00 0.00 0.000
7:00am 22 38 44 17 20 74.5 66.8 30.19 8.80 0.00 0.00 0.00 0.000
7:01am 3 26 40 17 20 74.5 66.7 30.18 8.80 0.00 0.00 0.00 0.000
7:02am 20 31 40 17 20 74.5 66.7 30.18 8.80 0.00 0.00 0.00 0.000
7:03am 21 15 40 17 20 74.5 66.7 30.18 8.80 0.00 0.00 0.00 0.000
7:03am 24 29 40 17 20 74.5 66.7 30.19 8.80 0.00 0.00 0.00 0.000
7:05am 345 28 42 17 20 74.5 66.7 30.18 8.80 0.00 0.00 0.00 0.000
7:06am 12 38 42 17 20 74.5 66.7 30.19 8.80 0.00 0.00 0.00 0.000
7:07am 22 34 42 17 20 74.5 66.8 30.19 8.80 0.00 0.00 0.00 0.000
7:08am 45 30 42 17 20 74.5 66.8 30.18 8.80 0.00 0.00 0.00 0.000
7:08am 14 33 44 17 19 74.5 66.9 30.18 8.80 0.00 0.00 0.00 0.000
7:10am 9 29 44 17 19 74.5 67.0 30.19 8.80 0.00 0.00 0.00 0.000
7:11am 38 33 44 17 20 74.5 67.0 30.19 8.80 0.00 0.00 0.00 0.000
7:12am 30 33 44 17 19 74.5 67.0 30.19 8.80 0.00 0.00 0.00 0.000
7:13am 11 27 44 17 19 74.5 67.1 30.18 8.80 0.00 0.00 0.00 0.000
7:14am 17 29 46 17 19 74.5 67.2 30.19 8.80 0.00 0.00 0.00 0.000
7:15am 26 39 46 17 19 74.5 67.3 30.19 8.80 0.00 0.00 0.00 0.000
7:16am 20 28 39 17 19 74.5 67.5 30.19 8.80 0.00 0.00 0.00 0.000
7:17am 12 22 39 17 19 74.5 67.7 30.18 8.80 0.00 0.00 0.00 0.000
7:18am 24 23 39 17 19 74.5 67.9 30.18 8.80 0.00 0.00 0.00 0.000
7:19am 21 30 39 17 18 74.5 68.0 30.18 8.80 0.00 0.00 0.00 0.000
7:20am 9 26 39 17 19 74.5 68.1 30.19 8.80 0.00 0.00 0.00 0.000
7:21am 43 22 39 17 19 74.5 68.0 30.19 8.80 0.00 0.00 0.00 0.000
7:22am 6 31 41 17 18 74.4 68.1 30.19 8.80 0.00 0.00 0.00 0.000
7:23am 12 35 41 17 18 74.4 68.1 30.18 8.80 0.00 0.00 0.00 0.000
7:24am 9 23 41 17 18 74.4 68.2 30.19 8.80 0.00 0.00 0.00 0.000
7:25am 5 33 41 17 18 74.4 68.2 30.19 8.80 0.00 0.00 0.00 0.000
7:26am 24 39 41 17 18 74.4 68.3 30.18 8.80 0.00 0.00 0.00 0.000
7:27am 16 26 41 17 18 74.4 68.4 30.19 8.80 0.00 0.00 0.00 0.000
7:28am 4 38 41 17 18 74.4 68.4 30.19 8.80 0.00 0.00 0.00 0.000
7:29am 15 22 41 17 18 74.4 68.4 30.19 8.80 0.00 0.00 0.00 0.000
7:30am 22 26 41 17 18 74.4 68.3 30.19 8.80 0.00 0.00 0.00 0.000
7:30am 5 24 34 17 18 74.4 68.3 30.19 8.80 0.00 0.00 0.00 0.000
7:32am 17 40 40 17 18 74.4 68.3 30.18 8.80 0.00 0.00 0.00 0.000
7:33am 33 26 40 17 18 74.4 68.4 30.19 8.80 0.00 0.00 0.00 0.000
7:34am 9 31 40 17 18 74.4 68.4 30.19 8.80 0.00 0.00 0.00 0.000
7:35am 12 40 40 17 18 74.4 68.5 30.19 8.80 0.00 0.00 0.00 0.000
7:36am 17 35 40 17 18 74.4 68.5 30.18 8.80 0.00 0.00 0.00 0.000
7:37am 38 29 40 17 18 74.4 68.6 30.19 8.80 0.00 0.00 0.00 0.000
7:38am 359 33 41 17 18 74.4 68.7 30.19 8.80 0.00 0.00 0.00 0.000
7:39am 20 32 41 17 19 74.4 68.6 30.18 8.80 0.00 0.00 0.00 0.000
7:40am 37 33 41 17 18 74.4 68.5 30.19 8.80 0.00 0.00 0.00 0.000
7:41am 23 24 41 17 18 74.4 68.6 30.19 8.80 0.00 0.00 0.00 0.000
7:42am 13 35 46 17 18 74.4 68.6 30.19 8.80 0.00 0.00 0.00 0.000
7:43am 30 28 46 17 19 74.4 68.6 30.19 8.80 0.00 0.00 0.00 0.000
7:44am 21 30 46 17 18 74.4 68.6 30.19 8.80 0.00 0.00 0.00 0.000
7:44am 32 32 46 17 18 74.4 68.6 30.18 8.80 0.00 0.00 0.00 0.000
7:46am 9 28 41 17 18 74.4 68.6 30.19 8.80 0.00 0.00 0.00 0.000
7:47am 36 29 41 17 18 74.4 68.6 30.19 8.80 0.00 0.00 0.00 0.000
7:48am 31 30 41 17 18 74.4 68.6 30.19 8.80 0.00 0.00 0.00 0.000
7:49am 32 30 41 17 18 74.4 68.6 30.19 8.80 0.00 0.00 0.00 0.000
7:50am 20 32 41 17 19 74.4 68.6 30.19 8.80 0.00 0.00 0.00 0.000
7:50am 24 32 41 17 18 74.4 68.6 30.20 8.80 0.00 0.00 0.00 0.000
7:52am 44 36 41 17 18 74.4 68.6 30.20 8.80 0.00 0.00 0.00 0.000
7:53am 10 41 41 17 19 74.4 68.6 30.19 8.80 0.00 0.00 0.00 0.000
7:54am 20 32 43 17 18 74.4 68.6 30.19 8.80 0.00 0.00 0.00 0.000
7:55am 16 29 43 17 18 74.4 68.6 30.20 8.80 0.00 0.00 0.00 0.000
7:56am 47 21 43 17 18 74.4 68.6 30.18 8.80 0.00 0.00 0.00 0.000
7:57am 34 30 43 17 19 74.4 68.6 30.19 8.80 0.00 0.00 0.00 0.000
7:58am 44 22 43 17 19 74.4 68.6 30.19 8.80 0.00 0.00 0.00 0.000
7:59am 11 28 43 17 19 74.4 68.5 30.19 8.80 0.00 0.00 0.00 0.000
8:00am 43 40 43 17 19 74.4 68.5 30.19 8.80 0.00 0.00 0.00 0.000
8:01am 30 33 40 17 19 74.4 68.5 30.19 8.80 0.00 0.00 0.00 0.000
8:02am 35 20 40 17 18 74.4 68.5 30.20 8.80 0.00 0.00 0.00 0.000
8:03am 52 22 40 17 18 74.4 68.5 30.20 8.80 0.00 0.00 0.00 0.000
8:04am 25 35 40 17 19 74.4 68.5 30.20 8.80 0.00 0.00 0.00 0.000
8:05am 56 21 40 17 19 74.4 68.6 30.21 8.80 0.00 0.00 0.00 0.000
8:06am 355 20 40 17 19 74.4 68.6 30.22 8.80 0.00 0.00 0.00 0.000
8:07am 13 29 40 17 19 74.4 68.6 30.20 8.80 0.00 0.00 0.00 0.000
8:08am 19 29 40 17 19 74.4 68.6 30.20 8.80 0.00 0.00 0.00 0.000
8:09am 20 24 40 17 19 74.4 68.5 30.20 8.80 0.00 0.00 0.00 0.000
8:10am 11 28 40 17 19 74.4 68.4 30.19 8.80 0.00 0.00 0.00 0.000
8:11am 30 15 40 17 19 74.4 68.4 30.20 8.80 0.00 0.00 0.00 0.000
8:12am 47 26 40 17 19 74.4 68.3 30.21 8.80 0.00 0.00 0.00 0.000
8:13am 32 41 41 17 19 74.4 68.3 30.20 8.80 0.00 0.00 0.00 0.000
8:14am 34 29 41 17 19 74.4 68.3 30.20 8.80 0.00 0.00 0.00 0.000
8:15am 9 26 41 17 19 74.4 68.3 30.22 8.80 0.00 0.00 0.00 0.000
8:16am 13 33 43 17 18 74.4 68.4 30.20 8.80 0.00 0.00 0.00 0.000
8:17am 17 25 43 17 19 74.4 68.4 30.20 8.80 0.00 0.00 0.00 0.000
8:18am 13 22 43 17 19 74.4 68.4 30.21 8.80 0.00 0.00 0.00 0.000
8:19am 8 24 43 17 19 74.4 68.4 30.21 8.80 0.00 0.00 0.00 0.000
8:20am 30 23 43 17 19 74.4 68.4 30.21 8.80 0.00 0.00 0.00 0.000
8:21am 22 30 43 17 19 74.4 68.4 30.21 8.80 0.00 0.00 0.00 0.000
8:22am 23 33 43 17 19 74.4 68.4 30.21 8.80 0.00 0.00 0.00 0.000
8:23am 13 28 43 17 19 74.4 68.3 30.21 8.80 0.00 0.00 0.00 0.000
8:24am 36 37 43 17 18 74.4 68.3 30.21 8.80 0.00 0.00 0.00 0.000
8:25am 49 17 43 17 19 74.4 68.4 30.22 8.80 0.00 0.00 0.00 0.000
8:26am 13 24 43 17 19 74.4 68.3 30.22 8.80 0.00 0.00 0.00 0.000
8:27am 38 30 44 17 19 74.4 68.3 30.21 8.80 0.00 0.00 0.00 0.000
8:28am 23 30 44 17 19 74.4 68.3 30.21 8.80 0.00 0.00 0.00 0.000
8:29am 36 28 44 17 19 74.4 68.2 30.22 8.80 0.00 0.00 0.00 0.000
8:30am 34 29 44 17 19 74.4 68.3 30.22 8.80 0.00 0.00 0.00 0.000
8:31am 47 17 34 17 19 74.4 68.4 30.21 8.80 0.00 0.00 0.00 0.000
8:32am 33 27 34 17 19 74.4 68.5 30.22 8.80 0.00 0.00 0.00 0.000
8:33am 50 36 41 17 19 74.4 68.5 30.21 8.80 0.00 0.00 0.00 0.000
8:34am 49 27 41 17 19 74.4 68.6 30.21 8.80 0.00 0.00 0.00 0.000
8:35am 39 27 41 17 19 74.4 68.6 30.21 8.80 0.00 0.00 0.00 0.000
8:36am 26 25 41 17 19 74.4 68.6 30.21 8.80 0.00 0.00 0.00 0.000
8:37am 357 27 41 17 19 74.4 68.6 30.21 8.80 0.00 0.00 0.00 0.000
8:38am 30 26 41 17 19 74.4 68.6 30.22 8.80 0.00 0.00 0.00 0.000
8:39am 31 13 41 17 19 74.4 68.5 30.22 8.80 0.00 0.00 0.00 0.000
8:40am 36 35 41 17 19 74.4 68.4 30.22 8.80 0.00 0.00 0.00 0.000
8:41am 12 28 41 17 19 74.5 68.4 30.21 8.80 0.00 0.00 0.00 0.000
8:42am 19 24 41 17 19 74.5 68.5 30.22 8.80 0.00 0.00 0.00 0.000
8:43am 66 33 41 17 19 74.5 68.5 30.22 8.80 0.00 0.00 0.00 0.000
8:44am 9 20 41 17 19 74.5 68.5 30.22 8.80 0.00 0.00 0.00 0.000
8:45am 40 25 41 17 19 74.5 68.5 30.22 8.80 0.00 0.00 0.00 0.000
8:46am 49 22 34 17 19 74.5 68.5 30.21 8.80 0.00 0.00 0.00 0.000
8:47am 12 28 40 17 19 74.5 68.5 30.22 8.80 0.00 0.00 0.00 0.000
8:48am 15 23 40 17 19 74.5 68.6 30.21 8.80 0.00 0.00 0.00 0.000
8:49am 22 23 40 17 19 74.5 68.6 30.22 8.80 0.00 0.00 0.00 0.000
8:50am 359 21 40 17 19 74.5 68.7 30.21 8.80 0.00 0.00 0.00 0.000
8:51am 36 21 40 17 19 74.5 68.7 30.22 8.80 0.00 0.00 0.00 0.000
8:52am 12 27 40 17 19 74.5 68.7 30.21 8.80 0.00 0.00 0.00 0.000
8:52am 29 22 40 17 19 74.5 68.8 30.21 8.80 0.00 0.00 0.00 0.000
8:54am 43 16 40 17 19 74.5 68.9 30.21 8.80 0.00 0.00 0.00 0.000
8:55am 20 26 40 17 19 74.5 69.0 30.22 8.80 0.00 0.00 0.00 0.000
8:56am 15 24 40 17 19 74.5 69.1 30.21 8.80 0.00 0.00 0.00 0.000
8:57am 16 32 40 17 19 74.5 69.1 30.21 8.80 0.00 0.00 0.00 0.000
8:58am 20 30 40 17 19 74.5 69.1 30.21 8.80 0.00 0.00 0.00 0.000
8:59am 355 27 40 17 19 74.5 69.1 30.21 8.80 0.00 0.00 0.00 0.000
9:00am 72 13 40 17 19 74.5 69.1 30.21 8.80 0.00 0.00 0.00 0.000
9:01am 15 33 36 17 19 74.7 69.1 30.21 8.80 0.00 0.00 0.00 0.000
9:02am 38 27 36 17 19 74.7 69.3 30.22 8.80 0.00 0.00 0.00 0.000
9:02am 11 29 36 17 19 74.7 69.3 30.22 8.80 0.00 0.00 0.00 0.000
9:04am 23 23 36 17 19 74.7 69.4 30.21 8.80 0.00 0.00 0.00 0.000
9:05am 32 20 36 17 19 74.7 69.5 30.21 8.80 0.00 0.00 0.00 0.000
9:06am 47 15 36 17 19 74.7 69.6 30.22 8.80 0.00 0.00 0.00 0.000
9:07am 19 30 36 17 19 74.7 69.6 30.22 8.80 0.00 0.00 0.00 0.000
9:08am 17 26 36 17 19 74.7 69.7 30.21 8.80 0.00 0.00 0.00 0.000
9:09am 46 25 44 17 18 74.7 69.8 30.21 8.80 0.00 0.00 0.00 0.000
9:10am 23 18 44 17 19 74.7 69.7 30.22 8.80 0.00 0.00 0.00 0.000
9:11am 7 32 44 17 19 74.7 69.7 30.21 8.80 0.00 0.00 0.00 0.000
9:12am 22 24 44 17 19 74.7 69.7 30.21 8.80 0.00 0.00 0.00 0.000
9:13am 22 16 44 17 19 74.7 69.7 30.22 8.80 0.00 0.00 0.00 0.000
9:14am 8 28 44 17 19 74.7 69.7 30.22 8.80 0.00 0.00 0.00 0.000
9:15am 359 24 44 17 19 74.7 69.6 30.22 8.80 0.00 0.00 0.00 0.000
9:16am 69 6 24 17 19 74.9 69.5 30.23 8.80 0.00 0.00 0.00 0.000
9:17am 43 26 28 17 19 74.9 69.5 30.22 8.80 0.00 0.00 0.00 0.000
9:18am 13 19 30 17 19 74.9 69.6 30.21 8.80 0.00 0.00 0.00 0.000
9:19am 17 24 30 17 19 74.9 69.7 30.22 8.80 0.00 0.00 0.00 0.000
9:20am 33 21 30 17 19 74.9 69.7 30.22 8.80 0.00 0.00 0.00 0.000
9:21am 11 36 40 17 19 74.9 69.8 30.22 8.80 0.00 0.00 0.00 0.000
9:21am 352 21 40 17 19 74.9 69.8 30.22 8.80 0.00 0.00 0.00 0.000
9:23am 24 22 40 17 19 74.9 69.9 30.23 8.80 0.00 0.00 0.00 0.000
9:24am 19 28 40 17 19 74.9 70.0 30.22 8.80 0.00 0.00 0.00 0.000
9:25am 29 32 40 17 18 74.9 70.0 30.22 8.80 0.00 0.00 0.00 0.000
9:25am 17 25 40 17 18 74.9 70.1 30.22 8.80 0.00 0.00 0.00 0.000
9:27am 21 21 40 17 19 75.1 70.2 30.22 8.80 0.00 0.00 0.00 0.000
9:28am 29 22 40 17 19 75.1 70.1 30.22 8.80 0.00 0.00 0.00 0.000
9:29am 28 33 40 17 19 75.1 70.0 30.22 8.80 0.00 0.00 0.00 0.000
9:30am 34 27 40 17 19 75.1 69.9 30.22 8.80 0.00 0.00 0.00 0.000
9:31am 7 30 36 17 18 75.1 69.9 30.21 8.80 0.00 0.00 0.00 0.000
9:32am 32 22 36 17 19 75.1 69.9 30.21 8.80 0.00 0.00 0.00 0.000
9:33am 5 15 36 17 19 75.1 69.9 30.22 8.80 0.00 0.00 0.00 0.000
9:34am 30 33 36 17 19 75.1 70.0 30.23 8.80 0.00 0.00 0.00 0.000
9:35am 353 31 36 17 19 75.1 70.0 30.22 8.80 0.00 0.00 0.00 0.000
9:36am 7 20 36 17 19 75.1 69.9 30.22 8.80 0.00 0.00 0.00 0.000
9:37am 19 25 40 17 19 75.2 69.8 30.22 8.80 0.00 0.00 0.00 0.000
9:38am 353 16 40 17 19 75.2 69.8 30.23 8.80 0.00 0.00 0.00 0.000
9:39am 39 30 40 17 19 75.2 69.8 30.23 8.80 0.00 0.00 0.00 0.000
9:39am 17 22 40 17 19 75.2 69.9 30.23 8.80 0.00 0.00 0.00 0.000
9:41am 352 29 40 17 19 75.2 69.9 30.23 8.80 0.00 0.00 0.00 0.000
9:42am 20 27 40 17 19 75.2 70.0 30.22 8.80 0.00 0.00 0.00 0.000
9:43am 16 36 40 17 18 75.2 70.0 30.23 8.80 0.00 0.00 0.00 0.000
9:44am 40 18 40 17 18 75.2 70.1 30.22 8.80 0.00 0.00 0.00 0.000
9:45am 11 19 40 17 19 75.2 70.1 30.22 8.80 0.00 0.00 0.00 0.000
9:45am 13 33 37 17 19 75.2 70.2 30.22 8.80 0.00 0.00 0.00 0.000
9:47am 24 23 37 17 18 75.2 70.2 30.22 8.80 0.00 0.00 0.00 0.000
9:48am 338 29 37 17 18 75.4 70.2 30.22 8.80 0.00 0.00 0.00 0.000
9:49am 32 22 37 17 18 75.4 70.3 30.23 8.80 0.00 0.00 0.00 0.000
9:50am 31 23 37 17 18 75.4 70.4 30.22 8.80 0.00 0.00 0.00 0.000
9:51am 13 30 41 17 18 75.4 70.4 30.22 8.80 0.00 0.00 0.00 0.000
9:52am 31 31 41 17 18 75.4 70.4 30.22 8.80 0.00 0.00 0.00 0.000
9:53am 24 20 41 17 18 75.4 70.5 30.22 8.80 0.00 0.00 0.00 0.000
9:54am 32 23 41 17 18 75.4 70.7 30.23 8.80 0.00 0.00 0.00 0.000
9:55am 28 19 41 17 18 75.4 70.8 30.22 8.80 0.00 0.00 0.00 0.000
9:56am 10 28 41 17 19 75.6 70.8 30.23 8.80 0.00 0.00 0.00 0.000
9:57am 34 37 41 17 17 75.6 70.7 30.22 8.80 0.00 0.00 0.00 0.000
9:58am 3 16 41 17 18 75.6 70.7 30.22 8.80 0.00 0.00 0.00 0.000
9:59am 11 41 41 17 18 75.6 70.7 30.23 8.80 0.00 0.00 0.00 0.000
10:00am 13 24 41 17 18 75.6 70.6 30.21 8.80 0.00 0.00 0.00 0.000
10:01am 345 21 31 17 18 75.6 70.6 30.23 8.80 0.00 0.00 0.00 0.000
10:02am 19 31 35 17 18 75.6 70.6 30.23 8.80 0.00 0.00 0.00 0.000
10:03am 354 27 38 17 18 75.6 70.6 30.22 8.80 0.00 0.00 0.00 0.000
10:04am 16 33 38 17 18 75.6 70.5 30.23 8.80 0.00 0.00 0.00 0.000
10:05am 36 28 38 17 18 75.6 70.5 30.22 8.80 0.00 0.00 0.00 0.000
10:06am 23 27 43 17 19 75.6 70.5 30.22 8.80 0.00 0.00 0.00 0.000
10:07am 47 23 43 17 19 75.8 70.5 30.23 8.80 0.00 0.00 0.00 0.000
10:08am 44 16 43 17 19 75.8 70.6 30.22 8.80 0.00 0.00 0.00 0.000
10:09am 20 28 43 17 18 75.8 70.6 30.22 8.80 0.00 0.00 0.00 0.000
10:10am 0 25 43 17 18 75.8 70.6 30.23 8.80 0.00 0.00 0.00 0.000
10:11am 34 25 43 17 19 75.8 70.6 30.23 8.80 0.00 0.00 0.00 0.000
10:12am 21 28 43 17 19 75.8 70.7 30.23 8.80 0.00 0.00 0.00 0.000
10:13am 4 31 43 17 19 75.8 70.7 30.23 8.80 0.00 0.00 0.00 0.000
10:14am 25 22 43 17 18 75.8 70.8 30.23 8.80 0.00 0.00 0.00 0.000
10:15am 30 24 43 17 18 75.8 70.9 30.23 8.80 0.00 0.00 0.00 0.000
10:16am 25 33 40 17 18 75.9 71.0 30.23 8.80 0.00 0.00 0.00 0.000
10:17am 4 22 40 17 18 75.9 71.0 30.22 8.80 0.00 0.00 0.00 0.000
10:18am 346 19 40 17 18 75.9 71.0 30.23 8.80 0.00 0.00 0.00 0.000
10:19am 5 22 40 17 19 75.9 71.0 30.23 8.80 0.00 0.00 0.00 0.000
10:20am 26 23 40 17 19 75.9 71.0 30.23 8.80 0.00 0.00 0.00 0.000
10:21am 350 25 40 17 18 75.9 71.0 30.23 8.80 0.00 0.00 0.00 0.000
10:22am 16 36 40 17 18 75.9 70.9 30.23 8.80 0.00 0.00 0.00 0.000
10:23am 56 27 40 17 19 75.9 70.9 30.22 8.80 0.00 0.00 0.00 0.000
10:24am 12 24 44 17 19 75.9 70.8 30.23 8.80 0.00 0.00 0.00 0.000
10:25am 16 28 44 17 18 76.1 70.7 30.23 8.80 0.00 0.00 0.00 0.000
10:26am 23 32 44 17 19 76.1 70.8 30.23 8.80 0.00 0.00 0.00 0.000
10:27am 22 37 44 17 19 76.1 70.8 30.22 8.80 0.00 0.00 0.00 0.000
10:28am 353 40 44 17 18 76.1 70.8 30.22 8.80 0.00 0.00 0.00 0.000
10:29am 7 28 44 17 18 76.1 70.8 30.22 8.80 0.00 0.00 0.00 0.000
10:30am 34 20 44 17 18 76.1 70.9 30.23 8.80 0.00 0.00 0.00 0.000
10:30am 22 25 28 17 19 76.1 70.9 30.22 8.80 0.00 0.00 0.00 0.000
10:32am 11 33 37 17 19 76.1 71.0 30.22 8.80 0.00 0.00 0.00 0.000
10:33am 22 22 37 17 19 76.1 70.9 30.22 8.80 0.00 0.00 0.00 0.000
10:34am 32 21 37 17 19 76.3 70.9 30.23 8.80 0.00 0.00 0.00 0.000
10:35am 2 22 37 17 19 76.3 70.9 30.23 8.80 0.00 0.00 0.00 0.000
10:36am 8 37 37 17 19 76.3 71.0 30.22 8.80 0.00 0.00 0.00 0.000
10:37am 22 22 39 17 18 76.3 71.1 30.22 8.80 0.00 0.00 0.00 0.000
10:38am 347 32 39 17 19 76.3 71.2 30.22 8.80 0.00 0.00 0.00 0.000
10:39am 27 22 39 17 18 76.3 71.2 30.22 8.80 0.00 0.00 0.00 0.000
10:40am 1 24 39 17 19 76.3 71.3 30.22 8.80 0.00 0.00 0.00 0.000
10:41am 53 23 39 17 18 76.5 71.3 30.22 8.80 0.00 0.00 0.00 0.000
10:42am 1 28 39 17 18 76.5 71.3 30.22 8.80 0.00 0.00 0.00 0.000
10:43am 10 32 39 17 19 76.5 71.4 30.22 8.80 0.00 0.00 0.00 0.000
10:44am 67 22 39 17 19 76.5 71.4 30.22 8.80 0.00 0.00 0.00 0.000
10:45am 348 47 47 17 19 76.5 71.4 30.21 8.80 0.00 0.00 0.00 0.000
10:46am 5 33 47 17 19 76.5 71.3 30.21 8.80 0.00 0.00 0.00 0.000
10:47am 38 30 47 17 19 76.6 71.3 30.22 8.80 0.00 0.00 0.00 0.000
10:48am 352 22 47 17 19 76.6 71.2 30.22 8.80 0.00 0.00 0.00 0.000
10:49am 10 21 47 17 19 76.6 71.2 30.22 8.80 0.00 0.00 0.00 0.000
10:50am 20 28 47 17 19 76.6 71.2 30.22 8.80 0.00 0.00 0.00 0.000
10:51am 7 30 47 17 19 76.6 71.3 30.22 8.80 0.00 0.00 0.00 0.000
10:52am 42 32 47 17 19 76.6 71.2 30.22 8.80 0.00 0.00 0.00 0.000
10:53am 353 40 47 17 19 76.6 71.2 30.21 8.80 0.00 0.00 0.00 0.000
10:54am 27 29 47 17 19 76.8 71.2 30.21 8.80 0.00 0.00 0.00 0.000
10:55am 30 28 47 17 19 76.8 71.2 30.22 8.80 0.00 0.00 0.00 0.000
10:56am 350 24 47 17 19 76.8 71.2 30.22 8.80 0.00 0.00 0.00 0.000
10:57am 24 27 47 17 19 76.8 71.3 30.22 8.80 0.00 0.00 0.00 0.000
10:58am 21 26 47 17 19 76.8 71.3 30.22 8.80 0.00 0.00 0.00 0.000
10:59am 35 35 47 17 18 76.8 71.6 30.22 8.80 0.00 0.00 0.00 0.000
11:00am 22 13 47 17 19 76.8 71.6 30.22 8.80 0.00 0.00 0.00 0.000
11:01am 22 19 27 17 19 76.8 71.6 30.22 8.80 0.00 0.00 0.00 0.000
11:02am 355 25 34 17 19 76.8 71.7 30.22 8.80 0.00 0.00 0.00 0.000
11:02am 25 31 42 17 19 77.0 71.8 30.21 8.80 0.00 0.00 0.00 0.000
11:03am 1 27 42 17 19 77.0 71.8 30.22 8.80 0.00 0.00 0.00 0.000
11:05am 32 19 42 17 19 77.0 71.8 30.22 8.80 0.00 0.00 0.00 0.000
11:06am 23 32 42 17 19 77.0 71.8 30.21 8.80 0.00 0.00 0.00 0.000
11:07am 12 26 42 17 19 77.0 71.8 30.22 8.80 0.00 0.00 0.00 0.000
11:08am 0 20 42 17 19 77.0 71.8 30.21 8.80 0.00 0.00 0.00 0.000
11:09am 17 29 42 17 19 77.0 71.8 30.21 8.80 0.00 0.00 0.00 0.000
11:10am 22 26 42 17 19 77.0 71.8 30.21 8.80 0.00 0.00 0.00 0.000
11:11am 3 23 42 17 19 77.2 71.8 30.21 8.80 0.00 0.00 0.00 0.000
11:12am 8 28 42 17 19 77.2 71.9 30.21 8.80 0.00 0.00 0.00 0.000
11:13am 7 28 42 17 19 77.2 71.9 30.21 8.80 0.00 0.00 0.00 0.000
11:14am 26 27 42 17 19 77.2 71.9 30.21 8.80 0.00 0.00 0.00 0.000
11:15am 353 31 42 17 19 77.2 72.0 30.22 8.80 0.00 0.00 0.00 0.000
11:16am 343 16 32 17 18 77.2 72.0 30.22 8.80 0.00 0.00 0.00 0.000
11:17am 359 31 32 17 19 77.2 72.0 30.22 8.80 0.00 0.00 0.00 0.000
11:17am 34 28 33 17 19 77.2 72.0 30.21 8.80 0.00 0.00 0.00 0.000
11:19am 22 26 33 17 19 77.3 72.1 30.22 8.80 0.00 0.00 0.00 0.000
11:20am 36 27 33 17 19 77.3 72.1 30.22 8.80 0.00 0.00 0.00 0.000
11:21am 43 25 35 17 19 77.3 72.3 30.21 8.80 0.00 0.00 0.00 0.000
11:22am 7 26 38 17 18 77.3 72.3 30.21 8.80 0.00 0.00 0.00 0.000
11:23am 28 28 38 17 18 77.3 72.4 30.21 8.80 0.00 0.00 0.00 0.000
11:23am 4 21 38 17 19 77.3 72.4 30.21 8.80 0.00 0.00 0.00 0.000
11:24am 15 30 38 17 19 77.3 72.5 30.21 8.80 0.00 0.00 0.00 0.000
11:26am 11 26 38 17 18 77.3 72.5 30.21 8.80 0.00 0.00 0.00 0.000
11:27am 3 18 38 17 18 77.5 72.5 30.22 8.80 0.00 0.00 0.00 0.000
11:28am 5 17 38 17 19 77.5 72.5 30.22 8.80 0.00 0.00 0.00 0.000
11:29am 9 20 38 17 19 77.5 72.6 30.21 8.80 0.00 0.00 0.00 0.000
11:30am 0 18 38 17 18 77.5 72.7 30.21 8.80 0.00 0.00 0.00 0.000
11:31am 28 28 28 17 19 77.5 72.8 30.21 8.80 0.00 0.00 0.00 0.000
11:32am 24 15 30 17 18 77.5 72.9 30.21 8.80 0.00 0.00 0.00 0.000
11:33am 357 26 30 17 18 77.5 73.0 30.21 8.80 0.00 0.00 0.00 0.000
11:34am 94 23 32 17 18 77.7 73.0 30.20 8.80 0.00 0.00 0.00 0.000
11:35am 355 28 32 17 18 77.7 73.1 30.20 8.80 0.00 0.00 0.00 0.000
11:36am 355 19 35 17 18 77.7 73.1 30.21 8.80 0.00 0.00 0.00 0.000
11:36am 7 18 35 17 17 77.7 73.1 30.21 8.80 0.00 0.00 0.00 0.000
11:38am 21 33 38 17 18 77.7 73.1 30.21 8.80 0.00 0.00 0.00 0.000
11:39am 5 31 38 17 17 77.7 73.0 30.21 8.80 0.00 0.00 0.00 0.000
11:40am 36 33 38 17 18 77.7 72.9 30.20 8.80 0.00 0.00 0.00 0.000
11:41am 28 22 38 17 18 77.7 72.9 30.20 8.80 0.00 0.00 0.00 0.000
11:42am 359 26 38 17 18 77.7 72.9 30.21 8.80 0.00 0.00 0.00 0.000
11:43am 16 20 38 17 18 77.7 72.9 30.21 8.80 0.00 0.00 0.00 0.000
11:44am 10 32 38 17 18 77.9 72.9 30.20 8.80 0.00 0.00 0.00 0.000
11:45am 356 29 38 17 17 77.9 72.9 30.20 8.80 0.00 0.00 0.00 0.000
11:46am 24 16 29 17 17 77.9 72.9 30.21 8.80 0.00 0.00 0.00 0.000
11:47am 31 24 36 17 18 77.9 73.0 30.21 8.80 0.00 0.00 0.00 0.000
11:48am 30 25 36 17 18 77.9 73.1 30.20 8.80 0.00 0.00 0.00 0.000
11:49am 12 13 36 17 18 77.9 73.1 30.20 8.80 0.00 0.00 0.00 0.000
11:50am 36 21 36 17 18 77.9 73.2 30.20 8.80 0.00 0.00 0.00 0.000
11:51am 27 19 36 17 18 78.1 73.3 30.21 8.80 0.00 0.00 0.00 0.000
11:52am 13 17 36 17 18 78.1 73.5 30.21 8.80 0.00 0.00 0.00 0.000
11:53am 46 26 36 17 18 78.1 73.6 30.20 8.80 0.00 0.00 0.00 0.000
11:54am 37 15 36 17 18 78.1 73.7 30.20 8.80 0.00 0.00 0.00 0.000
11:55am 36 27 36 17 18 78.1 73.8 30.20 8.80 0.00 0.00 0.00 0.000
11:56am 20 26 36 17 17 78.1 73.9 30.21 8.80 0.00 0.00 0.00 0.000
11:57am 52 26 36 17 17 78.1 74.0 30.20 8.80 0.00 0.00 0.00 0.000
11:58am 32 20 36 18 17 78.1 74.0 30.20 8.80 0.00 0.00 0.00 0.000
11:59am 38 21 36 18 17 78.2 74.0 30.20 8.80 0.00 0.00 0.00 0.000
12:00pm 19 17 36 18 18 78.2 74.0 30.20 8.80 0.00 0.00 0.00 0.000
12:01pm 3 26 28 18 17 78.2 74.0 30.21 8.80 0.00 0.00 0.00 0.000
12:02pm 30 26 36 18 17 78.2 74.0 30.20 8.80 0.00 0.00 0.00 0.000
12:03pm 3 20 36 18 17 78.2 74.0 30.20 8.80 0.00 0.00 0.00 0.000
12:04pm 13 19 36 18 17 78.2 73.9 30.20 8.80 0.00 0.00 0.00 0.000
12:05pm 9 18 36 18 18 78.2 73.9 30.20 8.80 0.00 0.00 0.00 0.000
12:06pm 359 16 36 18 17 78.2 73.9 30.20 8.80 0.00 0.00 0.00 0.000
12:07pm 359 17 36 19 18 78.2 73.9 30.20 8.80 0.00 0.00 0.00 0.000
12:08pm 17 24 36 19 18 78.2 73.9 30.20 8.80 0.00 0.00 0.00 0.000
12:09pm 350 31 36 19 17 78.4 73.9 30.20 8.80 0.00 0.00 0.00 0.000
12:10pm 0 25 36 19 17 78.4 73.9 30.20 8.80 0.00 0.00 0.00 0.000
12:11pm 20 22 36 19 17 78.4 73.9 30.20 8.80 0.00 0.00 0.00 0.000
12:12pm 13 27 36 19 17 78.4 73.8 30.20 8.80 0.00 0.00 0.00 0.000
12:13pm 24 28 36 19 17 78.4 73.8 30.20 8.80 0.00 0.00 0.00 0.000
12:14pm 352 18 36 19 17 78.4 73.8 30.20 8.80 0.00 0.00 0.00 0.000
12:15pm 16 19 36 19 17 78.4 73.8 30.20 8.80 0.00 0.00 0.00 0.000
12:16pm 43 20 29 19 18 78.6 73.9 30.20 8.80 0.00 0.00 0.00 0.000
12:17pm 3 24 29 19 18 78.6 74.1 30.20 8.80 0.00 0.00 0.00 0.000
12:18pm 20 23 32 20 17 78.6 74.1 30.20 8.80 0.00 0.00 0.00 0.000
12:19pm 3 19 32 20 17 78.6 74.1 30.20 8.80 0.00 0.00 0.00 0.000
12:20pm 10 17 32 20 17 78.6 74.1 30.20 8.80 0.00 0.00 0.00 0.000
12:21pm 13 22 32 20 18 78.6 74.2 30.20 8.80 0.00 0.00 0.00 0.000
12:22pm 344 15 32 20 18 78.6 74.3 30.20 8.80 0.00 0.00 0.00 0.000
12:23pm 8 16 34 20 18 78.8 74.4 30.20 8.80 0.00 0.00 0.00 0.000
12:24pm 2 26 34 20 17 78.8 74.5 30.20 8.80 0.00 0.00 0.00 0.000
12:25pm 42 17 34 20 17 78.8 74.4 30.20 8.80 0.00 0.00 0.00 0.000
12:26pm 4 16 34 20 17 78.8 74.4 30.20 8.80 0.00 0.00 0.00 0.000
12:27pm 10 17 34 20 18 78.8 74.4 30.20 8.80 0.00 0.00 0.00 0.000
12:28pm 347 22 34 20 18 78.8 74.5 30.19 8.80 0.00 0.00 0.00 0.000
12:29pm 338 17 34 20 17 78.8 74.6 30.19 8.80 0.00 0.00 0.00 0.000
12:30pm 11 20 34 20 17 78.8 74.7 30.19 8.80 0.00 0.00 0.00 0.000
12:31pm 12 18 23 20 17 78.8 74.8 30.19 8.80 0.00 0.00 0.00 0.000
12:32pm 27 18 23 20 17 78.9 74.9 30.19 8.80 0.00 0.00 0.00 0.000
12:33pm 7 20 29 20 18 78.9 74.9 30.19 8.80 0.00 0.00 0.00 0.000
12:34pm 8 17 29 21 17 78.9 75.0 30.19 8.80 0.00 0.00 0.00 0.000
12:35pm 28 21 29 21 17 78.9 75.0 30.19 8.80 0.00 0.00 0.00 0.000
12:36pm 19 17 29 21 17 78.9 75.0 30.18 8.80 0.00 0.00 0.00 0.000
12:37pm 328 20 33 21 17 78.9 75.0 30.18 8.80 0.00 0.00 0.00 0.000
12:38pm 353 17 33 21 17 78.9 75.0 30.19 8.80 0.00 0.00 0.00 0.000
12:39pm 357 11 33 21 17 79.1 75.0 30.19 8.80 0.00 0.00 0.00 0.000
12:40pm 15 24 33 21 18 79.1 75.0 30.19 8.80 0.00 0.00 0.00 0.000
12:41pm 337 20 33 21 17 79.1 75.0 30.18 8.80 0.00 0.00 0.00 0.000
12:42pm 357 16 33 21 17 79.1 75.1 30.18 8.80 0.00 0.00 0.00 0.000
12:43pm 359 25 33 21 17 79.1 75.1 30.18 8.80 0.00 0.00 0.00 0.000
12:44pm 39 19 33 21 16 79.1 75.1 30.18 8.80 0.00 0.00 0.00 0.000
12:45pm 3 31 33 21 17 79.1 75.0 30.18 8.80 0.00 0.00 0.00 0.000
12:46pm 3 24 31 21 17 79.1 75.0 30.18 8.80 0.00 0.00 0.00 0.000
12:47pm 2 23 31 21 17 79.1 75.0 30.18 8.80 0.00 0.00 0.00 0.000
12:48pm 1 18 31 21 17 79.3 75.0 30.18 8.80 0.00 0.00 0.00 0.000
12:49pm 358 17 31 22 17 79.3 75.0 30.18 8.80 0.00 0.00 0.00 0.000
12:50pm 355 20 31 22 17 79.3 75.1 30.18 8.80 0.00 0.00 0.00 0.000
12:51pm 5 21 31 22 17 79.3 75.1 30.18 8.80 0.00 0.00 0.00 0.000
12:52pm 321 19 31 22 17 79.3 75.1 30.18 8.80 0.00 0.00 0.00 0.000
12:53pm 5 19 31 22 17 79.3 75.1 30.18 8.80 0.00 0.00 0.00 0.000
12:54pm 2 27 31 22 17 79.3 75.1 30.17 8.80 0.00 0.00 0.00 0.000
12:55pm 356 16 31 22 17 79.5 75.2 30.17 8.80 0.00 0.00 0.00 0.000
12:56pm 3 19 31 22 17 79.5 75.2 30.18 8.80 0.00 0.00 0.00 0.000
12:57pm 20 23 33 22 17 79.5 75.3 30.18 8.80 0.00 0.00 0.00 0.000
12:58pm 348 30 33 23 17 79.5 75.3 30.17 8.80 0.00 0.00 0.00 0.000
12:59pm 1 20 33 23 17 79.5 75.2 30.17 8.80 0.00 0.00 0.00 0.000
1:00pm 8 20 33 22 17 79.5 75.2 30.17 8.80 0.00 0.00 0.00 0.000
1:01pm 13 16 21 22 17 79.5 75.2 30.18 8.80 0.00 0.00 0.00 0.000
1:02pm 32 13 21 22 17 79.5 75.2 30.18 8.80 0.00 0.00 0.00 0.000
1:03pm 12 28 29 22 17 79.5 75.2 30.18 8.80 0.00 0.00 0.00 0.000
1:04pm 1 15 29 22 17 79.5 75.3 30.17 8.80 0.00 0.00 0.00 0.000
1:05pm 9 25 29 22 17 79.5 75.3 30.17 8.80 0.00 0.00 0.00 0.000
1:06pm 13 27 35 22 17 79.7 75.3 30.17 8.80 0.00 0.00 0.00 0.000
1:07pm 30 23 35 22 17 79.7 75.3 30.17 8.80 0.00 0.00 0.00 0.000
1:08pm 5 26 35 22 16 79.7 75.3 30.17 8.80 0.00 0.00 0.00 0.000
1:09pm 357 19 35 22 16 79.7 75.3 30.17 8.80 0.00 0.00 0.00 0.000
1:10pm 19 23 35 21 17 79.7 75.3 30.17 8.80 0.00 0.00 0.00 0.000
1:11pm 359 23 35 21 16 79.7 75.3 30.17 8.80 0.00 0.00 0.00 0.000
1:12pm 3 17 35 21 17 79.9 75.3 30.17 8.80 0.00 0.00 0.00 0.000
1:13pm 349 24 35 21 17 79.9 75.3 30.17 8.80 0.00 0.00 0.00 0.000
1:14pm 7 25 35 21 17 79.9 75.4 30.17 8.80 0.00 0.00 0.00 0.000
1:15pm 342 27 35 21 16 79.9 75.4 30.17 8.80 0.00 0.00 0.00 0.000
1:16pm 349 24 31 21 16 79.9 75.4 30.17 8.80 0.00 0.00 0.00 0.000
1:17pm 350 20 31 21 16 79.9 75.4 30.17 8.80 0.00 0.00 0.00 0.000
1:18pm 7 18 31 20 16 80.1 75.4 30.17 8.80 0.00 0.00 0.00 0.000
1:19pm 22 23 33 20 17 80.1 75.4 30.17 8.80 0.00 0.00 0.00 0.000
1:20pm 5 20 33 20 16 80.1 75.4 30.17 8.80 0.00 0.00 0.00 0.000
1:21pm 354 20 33 20 17 80.1 75.4 30.17 8.80 0.00 0.00 0.00 0.000
1:22pm 0 23 33 20 17 80.1 75.4 30.17 8.80 0.00 0.00 0.00 0.000
1:23pm 1 29 33 20 16 80.1 75.4 30.17 8.80 0.00 0.00 0.00 0.000
1:24pm 27 21 33 20 16 80.1 75.4 30.17 8.80 0.00 0.00 0.00 0.000
1:25pm 355 18 33 20 17 80.2 75.4 30.17 8.80 0.00 0.00 0.00 0.000
1:26pm 22 19 33 20 16 80.2 75.5 30.17 8.80 0.00 0.00 0.00 0.000
1:27pm 356 26 33 20 17 80.2 75.5 30.17 8.80 0.00 0.00 0.00 0.000
1:28pm 356 17 33 20 16 80.2 75.5 30.17 8.80 0.00 0.00 0.00 0.000
1:28pm 8 23 33 20 16 80.2 75.6 30.17 8.80 0.00 0.00 0.00 0.000
1:30pm 11 21 33 20 17 80.2 75.7 30.17 8.80 0.00 0.00 0.00 0.000
1:31pm 20 27 31 20 16 80.2 75.8 30.17 8.80 0.00 0.00 0.00 0.000
1:32pm 26 22 31 20 16 80.2 75.8 30.16 8.80 0.00 0.00 0.00 0.000
1:33pm 2 24 31 20 16 80.2 75.8 30.17 8.80 0.00 0.00 0.00 0.000
1:34pm 7 21 31 20 16 80.4 75.8 30.17 8.80 0.00 0.00 0.00 0.000
1:35pm 4 29 31 20 16 80.4 75.8 30.17 8.80 0.00 0.00 0.00 0.000
1:36pm 5 26 31 20 16 80.4 75.8 30.17 8.80 0.00 0.00 0.00 0.000
1:37pm 4 22 31 20 16 80.4 75.8 30.17 8.80 0.00 0.00 0.00 0.000
1:38pm 357 22 36 20 15 80.4 75.7 30.17 8.80 0.00 0.00 0.00 0.000
1:39pm 15 20 36 20 15 80.4 75.7 30.17 8.80 0.00 0.00 0.00 0.000
1:40pm 344 20 36 20 16 80.4 75.6 30.17 8.80 0.00 0.00 0.00 0.000
1:41pm 15 21 36 20 16 80.6 75.6 30.17 8.80 0.00 0.00 0.00 0.000
1:42pm 9 21 36 20 16 80.6 75.6 30.17 8.80 0.00 0.00 0.00 0.000
1:42pm 19 27 36 20 16 80.6 75.6 30.17 8.80 0.00 0.00 0.00 0.000
1:44pm 22 27 36 20 16 80.6 75.6 30.17 8.80 0.00 0.00 0.00 0.000
1:45pm 22 21 36 20 16 80.6 75.6 30.17 8.80 0.00 0.00 0.00 0.000
1:46pm 4 21 28 20 16 80.6 75.6 30.17 8.80 0.00 0.00 0.00 0.000
1:47pm 41 17 28 20 16 80.6 75.6 30.17 8.80 0.00 0.00 0.00 0.000
1:48pm